TimeCST,TemperatureF,Dew PointF,Humidity,Sea Level PressureIn,VisibilityMPH,Wind Direction,Wind SpeedMPH,Gust SpeedMPH,PrecipitationIn,Events,Conditions,WindDirDegrees,DateUTC
12:15 AM,24.8,18.1,76,30.05,10.0,SW,12.7,18.4,N/A,,Clear,220,2013-01-16 06:15:00
12:35 AM,24.4,17.6,75,30.05,10.0,SW,11.5,-,N/A,,Clear,230,2013-01-16 06:35:00
12:55 AM,24.3,17.6,76,30.05,10.0,SW,8.1,-,N/A,,Clear,220,2013-01-16 06:55:00
1:15 AM,23.4,17.2,77,30.04,10.0,WSW,6.9,-,N/A,,Clear,240,2013-01-16 07:15:00
1:35 AM,23.4,17.1,77,30.03,10.0,SW,5.8,-,N/A,,Clear,220,2013-01-16 07:35:00
1:55 AM,23.0,16.7,77,30.03,10.0,SW,5.8,-,N/A,,Clear,220,2013-01-16 07:55:00
2:35 AM,22.6,16.7,78,30.03,10.0,WSW,6.9,-,N/A,,Clear,240,2013-01-16 08:35:00
2:55 AM,22.8,16.5,77,30.02,10.0,SW,10.4,-,N/A,,Clear,230,2013-01-16 08:55:00
3:15 AM,23.9,16.3,73,30.02,10.0,SW,9.2,-,N/A,,Scattered Clouds,230,2013-01-16 09:15:00
3:35 AM,24.6,16.2,70,30.01,10.0,SW,10.4,-,N/A,,Scattered Clouds,230,2013-01-16 09:35:00
3:55 AM,24.8,16.2,70,30.00,10.0,WSW,9.2,-,N/A,,Mostly Cloudy,240,2013-01-16 09:55:00
4:35 AM,26.1,17.1,69,29.99,10.0,WSW,8.1,-,N/A,,Overcast,240,2013-01-16 10:35:00
4:55 AM,25.7,17.4,71,29.99,10.0,West,5.8,-,N/A,,Overcast,260,2013-01-16 10:55:00
5:15 AM,25.9,17.8,71,29.99,10.0,WSW,8.1,-,N/A,,Mostly Cloudy,250,2013-01-16 11:15:00
5:35 AM,26.4,18.5,72,29.98,10.0,West,6.9,-,N/A,,Overcast,260,2013-01-16 11:35:00
5:55 AM,27.0,19.0,72,29.98,10.0,West,6.9,-,N/A,,Overcast,260,2013-01-16 11:55:00
6:35 AM,28.4,20.8,73,29.98,10.0,West,6.9,-,N/A,,Overcast,270,2013-01-16 12:35:00
6:55 AM,29.1,21.9,74,29.99,10.0,West,6.9,-,N/A,,Overcast,260,2013-01-16 12:55:00
7:15 AM,30.0,22.6,74,30.00,10.0,West,8.1,-,N/A,,Overcast,260,2013-01-16 13:15:00
7:35 AM,30.6,23.4,75,30.00,10.0,West,9.2,-,N/A,,Overcast,260,2013-01-16 13:35:00
7:55 AM,31.1,23.9,75,30.00,10.0,West,6.9,-,N/A,,Overcast,260,2013-01-16 13:55:00
8:15 AM,31.6,24.8,76,30.00,10.0,West,4.6,-,N/A,,Overcast,270,2013-01-16 14:15:00
8:35 AM,32.5,25.9,76,30.01,10.0,West,6.9,-,N/A,,Overcast,260,2013-01-16 14:35:00
8:55 AM,33.1,26.6,77,30.01,10.0,West,5.8,-,N/A,,Scattered Clouds,260,2013-01-16 14:55:00
9:15 AM,36.0,28.4,74,30.02,10.0,West,5.8,-,N/A,,Clear,280,2013-01-16 15:15:00
9:35 AM,39.9,29.8,67,30.01,10.0,NW,10.4,-,N/A,,Clear,310,2013-01-16 15:35:00
9:55 AM,41.9,30.0,63,30.01,10.0,NW,13.8,19.6,N/A,,Clear,310,2013-01-16 15:55:00
10:15 AM,43.0,30.2,61,30.02,10.0,NW,13.8,23.0,N/A,,Clear,310,2013-01-16 16:15:00
10:35 AM,44.4,30.2,57,30.02,10.0,NW,12.7,17.3,N/A,,Clear,310,2013-01-16 16:35:00
10:55 AM,46.0,30.2,54,30.02,10.0,NW,10.4,19.6,N/A,,Clear,320,2013-01-16 16:55:00
11:15 AM,47.3,30.0,51,30.02,10.0,NW,16.1,20.7,N/A,,Clear,320,2013-01-16 17:15:00
11:35 AM,48.2,29.7,49,30.02,10.0,NNW,13.8,-,N/A,,Clear,330,2013-01-16 17:35:00
11:55 AM,49.1,29.3,46,30.02,10.0,NNW,15.0,-,N/A,,Clear,330,2013-01-16 17:55:00
12:15 PM,49.3,29.7,47,30.02,10.0,NNW,11.5,20.7,N/A,,Clear,330,2013-01-16 18:15:00
12:35 PM,50.0,29.8,46,30.01,10.0,NW,9.2,-,N/A,,Clear,320,2013-01-16 18:35:00
12:55 PM,50.9,29.7,44,30.01,10.0,NNW,9.2,-,N/A,,Clear,330,2013-01-16 18:55:00
1:15 PM,51.1,29.3,43,30.00,10.0,NW,11.5,-,N/A,,Clear,320,2013-01-16 19:15:00
1:35 PM,52.2,28.6,40,30.00,10.0,NNW,10.4,-,N/A,,Clear,330,2013-01-16 19:35:00
2:15 PM,52.5,29.8,42,30.00,10.0,WNW,10.4,-,N/A,,Clear,300,2013-01-16 20:15:00
2:35 PM,52.0,29.3,42,30.01,10.0,WNW,12.7,-,N/A,,Clear,300,2013-01-16 20:35:00
2:55 PM,52.3,29.1,41,30.01,10.0,NW,11.5,16.1,N/A,,Clear,320,2013-01-16 20:55:00
3:15 PM,52.7,29.1,40,30.01,10.0,NW,10.4,-,N/A,,Clear,310,2013-01-16 21:15:00
3:35 PM,52.9,29.7,41,30.02,10.0,NW,8.1,-,N/A,,Clear,320,2013-01-16 21:35:00
3:55 PM,53.2,28.6,39,30.03,10.0,NW,8.1,-,N/A,,Clear,320,2013-01-16 21:55:00
4:15 PM,52.0,29.1,41,30.04,10.0,NW,9.2,-,N/A,,Clear,310,2013-01-16 22:15:00
4:35 PM,51.1,30.2,45,30.05,10.0,NW,5.8,-,N/A,,Clear,310,2013-01-16 22:35:00
4:55 PM,49.6,30.0,47,30.05,10.0,NW,4.6,-,N/A,,Clear,310,2013-01-16 22:55:00
5:15 PM,47.5,29.8,50,30.05,10.0,West,8.1,-,N/A,,Clear,280,2013-01-16 23:15:00
5:35 PM,45.1,31.1,58,30.07,10.0,West,5.8,-,N/A,,Clear,280,2013-01-16 23:35:00
5:55 PM,42.6,30.2,61,30.09,10.0,West,4.6,-,N/A,,Clear,280,2013-01-16 23:55:00
6:15 PM,41.2,29.7,64,30.09,10.0,NW,3.5,-,N/A,,Clear,310,2013-01-17 00:15:00
6:35 PM,42.1,29.8,62,30.10,10.0,NW,8.1,-,N/A,,Clear,310,2013-01-17 00:35:00
6:55 PM,41.5,29.7,63,30.12,10.0,WNW,8.1,-,N/A,,Clear,300,2013-01-17 00:55:00
7:15 PM,40.5,29.5,65,30.12,10.0,NW,9.2,-,N/A,,Clear,310,2013-01-17 01:15:00
7:35 PM,40.5,29.3,64,30.14,10.0,NW,6.9,-,N/A,,Clear,310,2013-01-17 01:35:00
7:55 PM,39.7,28.9,65,30.15,10.0,WNW,5.8,-,N/A,,Clear,300,2013-01-17 01:55:00
8:15 PM,38.7,28.9,68,30.16,10.0,WNW,5.8,-,N/A,,Clear,290,2013-01-17 02:15:00
8:35 PM,37.9,28.9,70,30.17,10.0,WNW,6.9,-,N/A,,Clear,300,2013-01-17 02:35:00
8:55 PM,39.0,28.8,67,30.17,10.0,NW,5.8,-,N/A,,Clear,310,2013-01-17 02:55:00
9:15 PM,37.0,28.8,72,30.19,10.0,NW,6.9,-,N/A,,Clear,310,2013-01-17 03:15:00
9:35 PM,36.3,28.4,73,30.21,10.0,NW,4.6,-,N/A,,Clear,320,2013-01-17 03:35:00
9:55 PM,35.8,28.8,76,30.22,10.0,NW,5.8,-,N/A,,Clear,320,2013-01-17 03:55:00
10:15 PM,35.1,28.4,77,30.23,10.0,NW,4.6,-,N/A,,Clear,320,2013-01-17 04:15:00
10:35 PM,34.0,28.0,79,30.23,10.0,NW,4.6,-,N/A,,Clear,320,2013-01-17 04:35:00
10:55 PM,33.4,27.7,79,30.23,10.0,NNW,5.8,-,N/A,,Clear,330,2013-01-17 04:55:00
11:15 PM,34.5,27.7,76,30.24,10.0,NW,5.8,-,N/A,,Clear,320,2013-01-17 05:15:00
11:35 PM,33.3,27.5,79,30.25,10.0,NNW,5.8,-,N/A,,Clear,330,2013-01-17 05:35:00
11:55 PM,32.9,27.5,81,30.27,10.0,NW,5.8,-,N/A,,Clear,320,2013-01-17 05:55:00